Flag for U.S.A. Weather past 2 weeks in Sidney, Montana, U.S.A.

Now
N/A

Sunny.


Feels Like: N/A
Forecast: 53 / 76 °F
Wind: No wind

Location: Sidney-Richland

Current Time: Aug 29, 2014 at 7:15:35 PM

Latest Report: Aug 29, 2014 at 6:35 PM


Visibility: 10 mi

Pressure: 29.97 "Hg

Humidity: N/A

Dew point: N/A

Location of SidneyLocation

Historic Weather in Sidney — Graph

°F

Sidney temperature yesterday

Maximum temperature yesterday: 88 °F (at 2:35 PM)
Minimum temperature yesterday: 54 °F (at 6:35 AM)
Average temperature yesterday: 70 °F

Past Weeks' High & Low Weather Summary

 TemperatureHumidityPressure
High91 °F (Aug 14, 5:15 PM)100% (Aug 15, 7:35 PM)30.19 "Hg (Aug 15, 7:35 PM)
Low39 °F (Aug 26, 3:55 AM)29% (Aug 28, 5:35 PM)29.61 "Hg (Aug 20, 4:55 AM)
Average65 °F78%29.92 "Hg
* Reported Aug 14 5:15 PM — Aug 29 5:55 PM, Sidney, Weather by CustomWeather, © 2014

Note: Actual official high and low records may vary slightly from our data, if they occured in-between our weather recording intervals... More about our weather records

Advertising

Sidney weather history for previous 24 hours

 ConditionsComfort  
Time TempWeatherWind HumidityBarometerVisibility
5:55 PM
Aug 29
73 °FSunny.6 mph47%29.98 "Hg10 mi
5:35 PM72 °FSunny.5 mph53%29.98 "Hg10 mi
5:15 PM72 °FSunny.6 mph53%29.98 "Hg10 mi
4:55 PM72 °FSunny.5 mph53%29.98 "Hg10 mi
4:35 PM72 °FSunny.6 mph53%29.98 "Hg10 mi
4:15 PM72 °FScattered clouds.7 mph53%29.98 "Hg10 mi
3:55 PM72 °FPartly sunny.No wind53%29.98 "Hg10 mi
3:35 PM72 °FPartly sunny.No wind53%29.99 "Hg10 mi
3:15 PM70 °FCloudy.8 mph57%29.99 "Hg10 mi
12:55 PM70 °FScattered clouds.14 mph64%30.01 "Hg10 mi
12:35 PM68 °FBroken clouds.12 mph69%30.01 "Hg10 mi
11:55 AM66 °FBroken clouds.13 mph73%30.01 "Hg10 mi
11:35 AM66 °FBroken clouds.13 mph73%30.01 "Hg10 mi
11:15 AM66 °FBroken clouds.12 mph73%30.01 "Hg10 mi
10:55 AM64 °FBroken clouds.12 mph73%30.02 "Hg10 mi
10:35 AM64 °FPassing clouds.14 mph78%30.01 "Hg10 mi
10:15 AM64 °FPassing clouds.10 mph78%30.00 "Hg10 mi
9:55 AM63 °FScattered clouds.13 mph83%30.00 "Hg10 mi
9:35 AM61 °FBroken clouds.13 mph83%30.00 "Hg10 mi
9:15 AM63 °FSunny.10 mph83%30.00 "Hg10 mi
8:55 AM61 °FSunny.14 mph88%29.99 "Hg10 mi
8:35 AM61 °FSunny.15 mph88%29.99 "Hg10 mi
8:15 AM61 °FSunny.10 mph88%29.98 "Hg10 mi
7:55 AM59 °FSunny.8 mph94%29.97 "Hg10 mi
7:35 AM59 °FSunny.10 mph94%29.97 "Hg10 mi
7:15 AM59 °FSunny.10 mph94%29.96 "Hg10 mi
6:55 AM59 °FPassing clouds.10 mph94%29.96 "Hg10 mi
6:35 AM59 °FOvercast.10 mph94%29.97 "Hg10 mi
5:55 AM59 °FPassing clouds.6 mph94%29.95 "Hg10 mi
5:35 AM61 °FPartly cloudy.8 mph88%29.97 "Hg10 mi
5:15 AM61 °FPassing clouds.6 mph88%29.94 "Hg10 mi
4:55 AM61 °FPassing clouds.5 mph88%29.93 "Hg10 mi
4:35 AM63 °FPassing clouds.6 mph73%29.91 "Hg10 mi
4:15 AM63 °FOvercast.6 mph73%29.90 "Hg10 mi
3:55 AM63 °FPartly cloudy.6 mph73%29.89 "Hg10 mi
3:35 AM63 °FPassing clouds.10 mph73%29.89 "Hg10 mi
3:15 AMN/APassing clouds.14 mphN/A29.89 "Hg10 mi
2:55 AM64 °FPassing clouds.13 mph68%29.90 "Hg10 mi
2:35 AM64 °FPassing clouds.15 mph68%29.90 "Hg10 mi
2:15 AM64 °FPassing clouds.18 mph73%29.89 "Hg10 mi
1:55 AM64 °FPassing clouds.26 mph73%29.87 "Hg10 mi
1:35 AM66 °FPassing clouds.22 mph73%29.85 "Hg10 mi
1:15 AM63 °FPassing clouds.17 mph73%29.84 "Hg10 mi
12:55 AM63 °FClear.5 mph73%29.80 "Hg10 mi
12:35 AM63 °FClear.6 mph73%29.79 "Hg10 mi
12:15 AM64 °FClear.5 mph68%29.80 "Hg10 mi
11:55 PM
Aug 28
64 °FClear.6 mph68%29.80 "Hg10 mi
11:35 PM66 °FClear.9 mph60%29.79 "Hg10 mi
11:15 PM66 °FClear.10 mph60%29.80 "Hg10 mi
10:55 PM68 °FClear.10 mph56%29.80 "Hg10 mi
10:35 PM66 °FClear.10 mph60%29.80 "Hg10 mi
10:15 PM70 °FClear.7 mph53%29.80 "Hg10 mi
9:55 PM70 °FClear.8 mph57%29.81 "Hg10 mi
9:35 PM70 °FClear.8 mph57%29.81 "Hg10 mi
9:15 PM70 °FClear.10 mph57%29.81 "Hg10 mi
8:55 PM70 °FClear.7 mph57%29.81 "Hg10 mi
8:35 PM72 °FSunny.7 mph53%29.81 "Hg10 mi
8:15 PM72 °FSunny.5 mph57%29.80 "Hg10 mi
7:55 PM72 °FSunny.7 mph57%29.80 "Hg10 mi
7:35 PM73 °FSunny.6 mph53%29.80 "Hg10 mi
7:15 PM77 °FSunny.6 mph47%29.80 "Hg10 mi
Weather by CustomWeather, © 2014

See weather overviewHow to use our weather pages